User: anonymous   Login
Location: Unspecified
(0.0000°N, 0.0000°E)
Time: 09:30:22
(UTC+00:00)
Language:

Olympus - Orbit

View from above orbital plane
View from above orbital plane
View from above satellite
View from above satellite

Ground track
Ground track

The orbit data is extracted from the following two-line orbital elements,

1 20122U 89053A   18018.30740345 -.00000129  00000-0  00000+0 0  9998
2 20122  14.8368   0.9884 0020290 272.1236 274.8199  1.01368452 89719
Epoch (UTC): 18 January 2018 07:22:39
Eccentricity: 0.0020290
inclination: 14.8368°
perigee height: 35396 km
apogee height: 35566 km
right ascension of ascending node: 0.9884°
argument of perigee: 272.1236°
revolutions per day: 1.01368452
mean anomaly at epoch: 274.8199°
orbit number at epoch: 8971

The dashed part of the orbit path shows where the satellite is in the earth's shadow,  

DLR